Crane Lake, MN

4:35 AM CDT on October 24, 2017 (GMT -0500)
Crane Lake

Weather History for KCDD - January, 2014

Change the Weather History Date:

Saturday, January 11, 2014

  Actual Average Record
Temperature  
Mean Temperature 20 °F -  
Max Temperature 24 °F 13 °F 37 °F (2006)
Min Temperature 15 °F 0 °F -27 °F (2015)
Degree Days  
Heating Degree Days 46    
Moisture  
Dew Point 20 °F    
Average Humidity 92    
Maximum Humidity 100    
Minimum Humidity 86    
Precipitation  
Precipitation 0.00 in - - ()
Sea Level Pressure  
Sea Level Pressure 29.48 in    
Wind  
Wind Speed 2 mph (WNW)    
Max Wind Speed 7 mph    
Max Gust Speed 16 mph    
Visibility 5 miles    
Events Snow    
Averages and records for this station are not official NWS values.
T = Trace of Precipitation, MM = Missing Value Source: NWS Daily Summary

Daily Weather History Graph

Daily Weather History Graph

Search for Another Location

Airport or City:

Trip Planner

Search our weather history database for the weather conditions in past years. The results will help you decide how hot, cold, wet, or windy it might be!

Date:

Astronomy

Jan. 11, 2014 Rise Set
Actual Time 7:58 AM CST 4:38 PM CST
Civil Twilight 7:22 AM CST 5:13 PM CST
Nautical Twilight 6:43 AM CST 5:52 PM CST
Astronomical Twilight 6:05 AM CST 6:30 PM CST
Moon 1:25 PM CST (1/11) 3:59 AM CST (1/11)
Length of Visible Light 9h 51m
Length of Day
8h 39m
Waxing Gibbous, 83% of the Moon is Illuminated
Jan 11
Waxing Gibbous
Jan 15
Full
Jan 23
Last Quarter
Jan 30
New
Feb 6
First Quarter

Hourly Weather History & Observations

Time (CST) Temp. Windchill Dew Point Humidity Pressure Visibility Wind Dir Wind Speed Gust Speed Precip Events Conditions
12:04 AM 23.0 °F - 21.2 °F 93% 29.43 in 2.5 mi Calm Calm - N/A   Overcast
12:23 AM 23.0 °F - 21.2 °F 93% 29.43 in 3.0 mi Calm Calm - N/A   Overcast
12:44 AM 23.0 °F 18.4 °F 21.2 °F 93% 29.42 in 3.0 mi South 3.5 mph - N/A   Overcast
1:03 AM 24.8 °F - 23.0 °F 93% 29.42 in 3.0 mi Calm Calm - N/A   Overcast
1:23 AM 24.8 °F - 23.0 °F 93% 29.41 in 3.0 mi Calm Calm - N/A   Overcast
1:43 AM 24.8 °F - 23.0 °F 93% 29.41 in 3.0 mi Calm Calm - N/A   Overcast
2:03 AM 24.8 °F - 23.0 °F 93% 29.41 in 2.5 mi Calm Calm - N/A   Overcast
2:23 AM 24.8 °F - 23.0 °F 93% 29.41 in 2.5 mi Calm Calm - N/A   Overcast
2:43 AM 24.8 °F - 23.0 °F 93% 29.40 in 2.5 mi Calm Calm - N/A   Overcast
3:03 AM 24.8 °F - 23.0 °F 93% 29.40 in 3.0 mi Calm Calm - N/A   Overcast
3:23 AM 24.8 °F - 23.0 °F 93% 29.41 in 3.0 mi Calm Calm - N/A   Overcast
3:43 AM 24.8 °F - 23.0 °F 93% 29.40 in 1.8 mi Calm Calm - N/A   Overcast
4:03 AM 24.8 °F - 23.0 °F 93% 29.40 in 1.8 mi Calm Calm - N/A   Overcast
4:23 AM 24.8 °F - 23.0 °F 93% 29.40 in 1.5 mi Calm Calm - N/A   Overcast
4:43 AM 24.8 °F - 23.0 °F 93% 29.40 in 1.2 mi Calm Calm - N/A Snow Light Snow
5:04 AM 24.8 °F - 23.0 °F 93% 29.40 in 1.5 mi Calm Calm - N/A Snow Light Snow
5:24 AM 24.8 °F - 23.0 °F 93% 29.40 in 2.5 mi Calm Calm - N/A   Overcast
5:43 AM 24.8 °F - 23.0 °F 93% 29.40 in 2.5 mi Calm Calm - N/A Snow Light Snow
6:04 AM 24.8 °F - 23.0 °F 93% 29.41 in 2.5 mi Calm Calm - N/A Snow Light Snow
6:24 AM 24.8 °F - 24.8 °F 100% 29.41 in 2.5 mi Calm Calm - N/A Snow Light Snow
6:43 AM 24.8 °F - 24.8 °F 100% 29.41 in 3.0 mi Calm Calm - N/A   Overcast
7:03 AM 24.8 °F 20.5 °F 24.8 °F 100% 29.42 in 3.0 mi WNW 3.5 mph - N/A   Overcast
7:23 AM 24.8 °F 19.1 °F 24.8 °F 100% 29.42 in 3.0 mi NW 4.6 mph - N/A   Overcast
7:44 AM 24.8 °F 19.1 °F 24.8 °F 100% 29.43 in 1.8 mi NW 4.6 mph - N/A   Overcast
8:03 AM 24.8 °F 20.5 °F 24.8 °F 100% 29.43 in 3.0 mi NW 3.5 mph - N/A   Overcast
8:23 AM 24.8 °F 19.1 °F 24.8 °F 100% 29.44 in 4.0 mi NW 4.6 mph - N/A   Overcast
8:44 AM 24.8 °F 17.9 °F 23.0 °F 93% 29.45 in 4.0 mi WNW 5.8 mph - N/A   Overcast
9:04 AM 24.8 °F 19.1 °F 24.8 °F 100% 29.45 in 4.0 mi NW 4.6 mph - N/A   Overcast
9:23 AM 24.8 °F 19.1 °F 23.0 °F 93% 29.45 in 4.0 mi West 4.6 mph - N/A   Overcast
9:43 AM 24.8 °F 19.1 °F 23.0 °F 93% 29.47 in 4.0 mi WNW 4.6 mph - N/A   Overcast
10:03 AM 24.8 °F 20.5 °F 23.0 °F 93% 29.47 in 4.0 mi NW 3.5 mph - N/A   Overcast
10:23 AM 24.8 °F 19.1 °F 23.0 °F 93% 29.47 in 4.0 mi WNW 4.6 mph - N/A   Overcast
10:43 AM 24.8 °F 20.5 °F 23.0 °F 93% 29.47 in 5.0 mi West 3.5 mph - N/A   Overcast
11:03 AM 24.8 °F 17.9 °F 23.0 °F 93% 29.47 in 5.0 mi NW 5.8 mph - N/A   Overcast
11:23 AM 24.8 °F 20.5 °F 23.0 °F 93% 29.47 in 5.0 mi NW 3.5 mph - N/A   Overcast
11:43 AM 24.8 °F 16.9 °F 21.2 °F 86% 29.48 in 5.0 mi NW 6.9 mph - N/A   Overcast
12:03 PM 24.8 °F 19.1 °F 21.2 °F 86% 29.47 in 5.0 mi NW 4.6 mph - N/A   Overcast
12:24 PM 24.8 °F - 21.2 °F 86% 29.47 in 5.0 mi Calm Calm - N/A   Overcast
12:43 PM 24.8 °F 20.5 °F 21.2 °F 86% 29.46 in 5.0 mi NW 3.5 mph - N/A   Overcast
1:03 PM 23.0 °F 15.8 °F 21.2 °F 93% 29.47 in 5.0 mi WNW 5.8 mph - N/A   Overcast
1:23 PM 23.0 °F 18.4 °F 21.2 °F 93% 29.47 in 5.0 mi WNW 3.5 mph - N/A   Overcast
1:44 PM 23.0 °F 14.7 °F 21.2 °F 93% 29.47 in 5.0 mi WNW 6.9 mph - N/A   Overcast
2:04 PM 23.0 °F 15.8 °F 21.2 °F 93% 29.48 in 5.0 mi NW 5.8 mph - N/A   Overcast
2:23 PM 23.0 °F 17.0 °F 21.2 °F 93% 29.49 in 5.0 mi West 4.6 mph - N/A   Overcast
2:43 PM 21.2 °F 16.4 °F 19.4 °F 93% 29.49 in 7.0 mi West 3.5 mph - N/A   Overcast
3:03 PM 21.2 °F 16.4 °F 19.4 °F 93% 29.51 in 5.0 mi West 3.5 mph 16.1 mph N/A   Overcast
3:24 PM 21.2 °F 14.9 °F 19.4 °F 93% 29.51 in 5.0 mi WNW 4.6 mph - N/A   Overcast
3:43 PM 21.2 °F 12.6 °F 19.4 °F 93% 29.52 in 7.0 mi West 6.9 mph - N/A   Overcast
4:03 PM 21.2 °F 14.9 °F 17.6 °F 86% 29.53 in 7.0 mi NW 4.6 mph - N/A   Overcast
4:24 PM 19.4 °F 12.8 °F 17.6 °F 93% 29.53 in 5.0 mi NW 4.6 mph - N/A   Overcast
4:43 PM 19.4 °F 11.5 °F 17.6 °F 93% 29.54 in 7.0 mi West 5.8 mph - N/A   Overcast
5:03 PM 19.4 °F 11.5 °F 17.6 °F 93% 29.54 in 7.0 mi West 5.8 mph - N/A   Overcast
5:23 PM 19.4 °F 12.8 °F 17.6 °F 93% 29.55 in 7.0 mi West 4.6 mph - N/A   Overcast
5:43 PM 17.6 °F 9.3 °F 15.8 °F 93% 29.56 in 10.0 mi West 5.8 mph - N/A   Overcast
6:03 PM 17.6 °F - 15.8 °F 93% 29.56 in 10.0 mi Calm Calm - N/A   Overcast
6:23 PM 17.6 °F 12.3 °F 15.8 °F 93% 29.56 in 10.0 mi NW 3.5 mph - N/A   Overcast
6:43 PM 15.8 °F 8.6 °F 14.0 °F 93% 29.57 in 10.0 mi NW 4.6 mph - N/A   Overcast
7:03 PM 15.8 °F - 14.0 °F 93% 29.56 in 10.0 mi Calm Calm - N/A   Overcast
7:23 PM 15.8 °F - 14.0 °F 93% 29.56 in 10.0 mi Calm Calm - N/A   Overcast
7:43 PM 15.8 °F 10.2 °F 14.0 °F 93% 29.57 in 10.0 mi NW 3.5 mph - N/A   Overcast
8:04 PM 15.8 °F - 12.2 °F 86% 29.57 in 10.0 mi Calm Calm - N/A   Overcast
8:24 PM 15.8 °F 6.1 °F 12.2 °F 86% 29.57 in 10.0 mi West 6.9 mph - N/A   Overcast
8:43 PM 15.8 °F 10.2 °F 12.2 °F 86% 29.56 in 10.0 mi WSW 3.5 mph - N/A   Overcast
9:03 PM 15.8 °F - 12.2 °F 86% 29.56 in 10.0 mi Calm Calm - N/A   Overcast
9:24 PM 15.8 °F - 12.2 °F 86% 29.56 in 10.0 mi Calm Calm - N/A   Overcast
9:43 PM 15.8 °F - 12.2 °F 86% 29.53 in 10.0 mi Calm Calm - N/A   Overcast
10:03 PM 15.8 °F - 12.2 °F 86% 29.54 in 7.0 mi Calm Calm - N/A   Overcast
10:23 PM 15.8 °F - 12.2 °F 86% 29.54 in 5.0 mi Calm Calm - N/A   Overcast
10:43 PM 15.8 °F - 12.2 °F 86% 29.54 in 4.0 mi Calm Calm - N/A   Overcast
11:03 PM 15.8 °F - 12.2 °F 86% 29.54 in 3.0 mi Calm Calm - N/A   Overcast
11:23 PM 15.8 °F - 12.2 °F 86% 29.54 in 3.0 mi Calm Calm - N/A   Overcast
11:43 PM 15.8 °F - 14.0 °F 93% 29.53 in 5.0 mi Calm Calm - N/A   Overcast